Location: Allos
(44.2333°N, 6.6333°E)
Time: 17:31:58
(UTC+00:00)

Cosmos 44 Rocket - Pass Details

Date: 01 December 2020
Orbit: 639 x 751 km, 65.1° (Epoch: 22 January)

Event Time Altitude Azimuth Distance (km) Brightness Sun altitude
Rises 17:36:04 0° 329° (NNW) 3,168 6.9 -17.4°
Reaches altitude 10° 17:38:31 10° 335° (NNW) 2,255 6.1 -17.8°
Maximum altitude 17:43:31 47° 49° (NE) 987 3.7 -18.7°
Enters shadow 17:45:11 35° 97° (E) 1,200 4.0 -19.0°
